Previsão horária em Almak

Hoje, 22 Janeiro, Sexta-feira

Tempo Temperatura Precipitação Vento Pressão Humidade
00:00 -7°C° 0 mm 2 m/s 684 mmHg 47%
01:00 -7°C° 0 mm 2 m/s 683 mmHg 45%
02:00 -7°C° 0 mm 2 m/s 683 mmHg 42%
03:00 -7°C° 0 mm 2 m/s 683 mmHg 40%
04:00 -6°C° 0 mm 2 m/s 683 mmHg 38%
05:00 -6°C° 0 mm 2 m/s 683 mmHg 37%
06:00 -6°C° 0 mm 2 m/s 683 mmHg 35%
07:00 -3°C° 0 mm 1 m/s 683 mmHg 35%
08:00 -2°C° 0 mm 1 m/s 683 mmHg 35%
09:00 -1°C° 0 mm 1 m/s 683 mmHg 35%
10:00 0°C° 0 mm 1 m/s 683 mmHg 35%
11:00 +2°C° 0 mm 1 m/s 683 mmHg 34%
12:00 +3°C° 0 mm 1 m/s 684 mmHg 34%
13:00 +3°C° 0 mm 1 m/s 683 mmHg 36%
14:00 +3°C° 0 mm 1 m/s 683 mmHg 39%
15:00 +3°C° 0 mm 1 m/s 682 mmHg 41%
16:00 +2°C° 0 mm 1 m/s 682 mmHg 41%
17:00 0°C° 0 mm 1 m/s 682 mmHg 41%
18:00 -1°C° 0 mm 1 m/s 682 mmHg 40%
19:00 -1°C° 0 mm 1 m/s 682 mmHg 38%
20:00 -1°C° 0 mm 1 m/s 682 mmHg 36%
21:00 -1°C° 0 mm 1 m/s 682 mmHg 34%
22:00 -1°C° 0 mm 1 m/s 682 mmHg 33%
23:00 -1°C° 0 mm 1 m/s 681 mmHg 32%

Amanhã, 23 Janeiro, Sábado

Tempo Temperatura Precipitação Vento Pressão Humidade
00:00 -1°C° 0 mm 1 m/s 681 mmHg 32%
01:00 -1°C° 0 mm 1 m/s 681 mmHg 32%
02:00 -1°C° 0 mm 1 m/s 681 mmHg 32%
03:00 -1°C° 0 mm 1 m/s 680 mmHg 33%
04:00 -2°C° 0 mm 1 m/s 680 mmHg 33%
05:00 -2°C° 0 mm 1 m/s 680 mmHg 33%
06:00 -2°C° 0 mm 1 m/s 680 mmHg 33%
07:00 -1°C° 0 mm 1 m/s 680 mmHg 33%
08:00 0°C° 0 mm 1 m/s 681 mmHg 33%
09:00 0°C° 0 mm 1 m/s 681 mmHg 33%
10:00 +2°C° 0 mm 1 m/s 681 mmHg 34%
11:00 +3°C° 0 mm 1 m/s 680 mmHg 35%
12:00 +4°C° 0 mm 1 m/s 680 mmHg 37%
13:00 +4°C° 0 mm 1 m/s 680 mmHg 39%
14:00 +4°C° 0 mm 1 m/s 680 mmHg 42%
15:00 +3°C° 0 mm 1 m/s 679 mmHg 45%
16:00 +2°C° 0 mm 1 m/s 679 mmHg 48%
17:00 +1°C° 0 mm 1 m/s 679 mmHg 52%
18:00 -1°C° 0 mm 1 m/s 679 mmHg 55%
19:00 -1°C° 0 mm 1 m/s 679 mmHg 53%
20:00 -1°C° 0 mm 1 m/s 679 mmHg 51%
21:00 -1°C° 0 mm 1 m/s 678 mmHg 49%
22:00 -1°C° 0 mm 1 m/s 678 mmHg 48%
23:00 -1°C° 0 mm 1 m/s 678 mmHg 46%

Depois de amanhã, 24 Janeiro, Domingo

Tempo Temperatura Precipitação Vento Pressão Humidade
00:00 -1°C° 0 mm 1 m/s 678 mmHg 45%
01:00 -1°C° 0 mm 1 m/s 678 mmHg 44%
02:00 -1°C° 0 mm 1 m/s 677 mmHg 42%
03:00 -1°C° 0 mm 1 m/s 677 mmHg 41%
04:00 -1°C° 0 mm 1 m/s 677 mmHg 40%
05:00 -1°C° 0 mm 1 m/s 677 mmHg 39%
06:00 -1°C° 0 mm 1 m/s 677 mmHg 38%
07:00 0°C° 0 mm 1 m/s 677 mmHg 37%
08:00 +1°C° 0 mm 1 m/s 678 mmHg 36%
09:00 +1°C° 0 mm 1 m/s 678 mmHg 36%
10:00 +3°C° 0 mm 1 m/s 678 mmHg 37%
11:00 +4°C° 0 mm 1 m/s 678 mmHg 39%
12:00 +5°C° 0 mm 1 m/s 678 mmHg 41%
13:00 +5°C° 0 mm 1 m/s 677 mmHg 43%
14:00 +5°C° 0 mm 1 m/s 677 mmHg 45%
15:00 +5°C° 0 mm 1 m/s 677 mmHg 47%
16:00 +4°C° 0 mm 1 m/s 677 mmHg 46%
17:00 +2°C° 0 mm 1 m/s 676 mmHg 46%
18:00 +1°C° 0 mm 1 m/s 676 mmHg 45%
19:00 +1°C° 0 mm 1 m/s 676 mmHg 44%
20:00 +1°C° 0 mm 1 m/s 676 mmHg 42%
21:00 +1°C° 0 mm 1 m/s 676 mmHg 41%
22:00 +1°C° 0 mm 1 m/s 676 mmHg 41%
23:00 +1°C° 0 mm 1 m/s 676 mmHg 40%

25 Janeiro, Segunda-feira

Tempo Temperatura Precipitação Vento Pressão Humidade
00:00 +1°C° 0 mm 1 m/s 676 mmHg 40%
01:00 +1°C° 0 mm 1 m/s 676 mmHg 39%
02:00 +1°C° 0 mm 1 m/s 675 mmHg 38%
03:00 +1°C° 0 mm 1 m/s 675 mmHg 38%
04:00 +1°C° 0 mm 1 m/s 675 mmHg 38%
05:00 +1°C° 0 mm 1 m/s 675 mmHg 38%
06:00 +2°C° 0 mm 1 m/s 675 mmHg 38%
07:00 +2°C° 0 mm 1 m/s 676 mmHg 38%
08:00 +3°C° 0 mm 1 m/s 676 mmHg 38%
09:00 +3°C° 0 mm 1 m/s 676 mmHg 38%
10:00 +5°C° 0 mm 1 m/s 676 mmHg 40%
11:00 +6°C° 0 mm 1 m/s 676 mmHg 41%
12:00 +7°C° 0 mm 1 m/s 676 mmHg 42%
13:00 +6°C° 0 mm 0 m/s 676 mmHg 44%
14:00 +6°C° 0 mm 0 m/s 676 mmHg 46%
15:00 +5°C° 0 mm 0 m/s 676 mmHg 48%
16:00 +4°C° 0 mm 0 m/s 675 mmHg 48%
17:00 +3°C° 0 mm 0 m/s 675 mmHg 48%
18:00 +2°C° 0 mm 0 m/s 675 mmHg 47%
19:00 +3°C° 0 mm 1 m/s 675 mmHg 47%
20:00 +3°C° 0 mm 1 m/s 675 mmHg 47%
21:00 +2°C° 0 mm 1 m/s 675 mmHg 47%
22:00 +2°C° 0 mm 1 m/s 675 mmHg 48%
23:00 +2°C° 0 mm 1 m/s 674 mmHg 48%

26 Janeiro, Terça-feira

Tempo Temperatura Precipitação Vento Pressão Humidade
00:00 +2°C° 0 mm 1 m/s 674 mmHg 48%
01:00 +2°C° 0 mm 1 m/s 674 mmHg 47%
02:00 +2°C° 0 mm 1 m/s 674 mmHg 45%
03:00 +2°C° 0 mm 1 m/s 674 mmHg 44%
04:00 +2°C° 0 mm 1 m/s 674 mmHg 43%
05:00 +2°C° 0 mm 1 m/s 675 mmHg 43%
06:00 +2°C° 0 mm 1 m/s 675 mmHg 42%
07:00 +3°C° 0 mm 1 m/s 675 mmHg 40%
08:00 +4°C° 0 mm 1 m/s 675 mmHg 39%
09:00 +5°C° 0 mm 1 m/s 676 mmHg 37%
10:00 +6°C° 0 mm 1 m/s 676 mmHg 38%
11:00 +8°C° 0 mm 1 m/s 676 mmHg 39%
12:00 +9°C° 0 mm 1 m/s 676 mmHg 40%
13:00 +8°C° 0 mm 1 m/s 675 mmHg 43%
14:00 +8°C° 0 mm 1 m/s 675 mmHg 46%
15:00 +7°C° 0 mm 1 m/s 675 mmHg 49%
16:00 +6°C° 0 mm 1 m/s 675 mmHg 50%
17:00 +5°C° 0 mm 1 m/s 674 mmHg 52%
18:00 +4°C° 0 mm 1 m/s 674 mmHg 53%
19:00 +4°C° 0 mm 1 m/s 674 mmHg 52%
20:00 +4°C° 0 mm 1 m/s 674 mmHg 52%
21:00 +4°C° 0 mm 1 m/s 675 mmHg 52%
22:00 +4°C° 0 mm 1 m/s 674 mmHg 51%
23:00 +4°C° 0 mm 1 m/s 674 mmHg 50%

27 Janeiro, Quarta-feira

Tempo Temperatura Precipitação Vento Pressão Humidade
00:00 +4°C° 0 mm 1 m/s 674 mmHg 48%
01:00 +4°C° 0 mm 1 m/s 674 mmHg 49%
02:00 +4°C° 0 mm 1 m/s 674 mmHg 49%
03:00 +3°C° 0 mm 1 m/s 674 mmHg 50%
04:00 +3°C° 0 mm 1 m/s 674 mmHg 51%
05:00 +3°C° 0 mm 1 m/s 673 mmHg 52%
06:00 +2°C° 0 mm 1 m/s 673 mmHg 53%
07:00 +3°C° 0 mm 1 m/s 673 mmHg 53%
08:00 +3°C° 0 mm 1 m/s 673 mmHg 54%
09:00 +4°C° 0 mm 1 m/s 673 mmHg 54%
10:00 +5°C° 0 mm 1 m/s 673 mmHg 55%
11:00 +6°C° 0 mm 1 m/s 673 mmHg 55%
12:00 +6°C° 0 mm 1 m/s 672 mmHg 56%
13:00 +6°C° 0 mm 1 m/s 672 mmHg 57%
14:00 +6°C° 0 mm 1 m/s 671 mmHg 58%
15:00 +6°C° 0 mm 1 m/s 671 mmHg 59%
16:00 +6°C° 0 mm 1 m/s 671 mmHg 60%
17:00 +5°C° 0 mm 1 m/s 670 mmHg 62%
18:00 +4°C° 0 mm 1 m/s 670 mmHg 64%
19:00 +4°C° 0 mm 1 m/s 670 mmHg 64%
20:00 +4°C° 0 mm 1 m/s 669 mmHg 64%
21:00 +3°C° 0 mm 1 m/s 669 mmHg 65%
22:00 +3°C° 0 mm 1 m/s 669 mmHg 64%
23:00 +3°C° 0 mm 1 m/s 668 mmHg 63%
Mostrar mais

Necessitamos do seu Consentimento

A Meteoprog e os seus Fornecedores de Serviços podem armazenar e aceder a dados pessoais como cookies, identificadores do dispositivo ou outras tecnologias semelhantes existentes no seu dispositivo e processar estes dados para personalizar conteúdos e anúncios, assim como funcionalidades nas redes sociais e análise de tráfego.

  • Armazenar e/ou aceder a informações no seu dispositivo

    Os cookies, identificadores do dispositivo ou outras informações podem ser armazenados ou acedidos no seu dispositivo, para os fins acima indicados.

  • Anúncios e conteúdos personalizados, medição de anúncios e conteúdos, dados sobre o público-alvo e desenvolvimento de produtos

    Os anúncios e os conteúdos podem ser personalizados com base num perfil. Podem ser adicionados dados adicionais para uma maior personalização dos anúncios e dos conteúdos. A eficácia dos anúncios e dos conteúdos pode ser medida. Podem ser obtidas informações sobre o público que visualizou os anúncios e os conteúdos. Estes dados podem ser usados para desenvolver ou melhorar sistemas, softwares ou a experiência do utilizador.

Ao clicar em "Eu concordo”, permitirá o uso de cookies, identificadores do dispositivo e web beacons mencionados ou outras tecnologias semelhantes. As configurações do navegador do seu dispositivo podem ser alteradas.

Para certos fins, podem ser invocados interesses legítimos ao invés de consentimento. Pode ler mais informação sobre este assunto na nossa Política de Privacidade e Cookies.